Hourly Weather Cegled

Today, 12 June, Saturday

Time Temperature Precipitation Wind Pressure Humidity
00:00 +18°C° 0.2 mm 1 mps 752 mmHg 77%
01:00 +18°C° 0 mm 1 mps 752 mmHg 81%
02:00 +16°C° 0.1 mm 1 mps 752 mmHg 84%
03:00 +16°C° 0.1 mm 1 mps 752 mmHg 87%
04:00 +15°C° 0.1 mm 2 mps 752 mmHg 90%
05:00 +18°C° 0 mm 1 mps 752 mmHg 85%
06:00 +19°C° 0 mm 1 mps 752 mmHg 80%
07:00 +21°C° 0 mm 1 mps 753 mmHg 75%
08:00 +22°C° 0 mm 1 mps 753 mmHg 69%
09:00 +24°C° 0 mm 1 mps 753 mmHg 63%
10:00 +25°C° 0 mm 1 mps 753 mmHg 57%
11:00 +26°C° 0 mm 2 mps 752 mmHg 53%
12:00 +27°C° 0 mm 2 mps 752 mmHg 49%
13:00 +28°C° 0 mm 2 mps 752 mmHg 45%
14:00 +28°C° 0 mm 3 mps 751 mmHg 47%
15:00 +27°C° 0 mm 3 mps 751 mmHg 49%
16:00 +27°C° 0 mm 3 mps 751 mmHg 52%
17:00 +26°C° 0 mm 3 mps 751 mmHg 57%
18:00 +25°C° 0 mm 2 mps 750 mmHg 63%
19:00 +24°C° 0 mm 2 mps 750 mmHg 69%
20:00 +22°C° 0.1 mm 3 mps 750 mmHg 70%
21:00 +21°C° 0.1 mm 3 mps 750 mmHg 72%
22:00 +21°C° 0.1 mm 4 mps 751 mmHg 74%
23:00 +20°C° 0.2 mm 4 mps 750 mmHg 76%

Tomorrow, 13 June, Sunday

Time Temperature Precipitation Wind Pressure Humidity
00:00 +20°C° 0.2 mm 5 mps 750 mmHg 78%
01:00 +20°C° 0.2 mm 6 mps 750 mmHg 81%
02:00 +18°C° 0 mm 7 mps 750 mmHg 81%
03:00 +18°C° 0 mm 7 mps 750 mmHg 82%
04:00 +17°C° 0 mm 8 mps 750 mmHg 82%
05:00 +17°C° 0 mm 8 mps 751 mmHg 76%
06:00 +18°C° 0 mm 8 mps 752 mmHg 70%
07:00 +18°C° 0 mm 8 mps 752 mmHg 64%
08:00 +20°C° 0 mm 8 mps 753 mmHg 60%
09:00 +20°C° 0 mm 8 mps 753 mmHg 55%
10:00 +21°C° 0 mm 8 mps 753 mmHg 51%
11:00 +22°C° 0 mm 8 mps 754 mmHg 48%
12:00 +22°C° 0 mm 8 mps 754 mmHg 45%
13:00 +22°C° 0 mm 8 mps 754 mmHg 41%
14:00 +22°C° 0 mm 8 mps 754 mmHg 43%
15:00 +22°C° 0 mm 7 mps 754 mmHg 44%
16:00 +22°C° 0 mm 7 mps 754 mmHg 46%
17:00 +21°C° 0 mm 6 mps 754 mmHg 51%
18:00 +19°C° 0 mm 6 mps 754 mmHg 56%
19:00 +17°C° 0 mm 5 mps 755 mmHg 60%
20:00 +16°C° 0 mm 5 mps 755 mmHg 61%
21:00 +15°C° 0 mm 4 mps 756 mmHg 63%
22:00 +13°C° 0 mm 4 mps 756 mmHg 64%
23:00 +13°C° 0 mm 3 mps 756 mmHg 66%

Day after tomorrow, 14 June, Monday

Time Temperature Precipitation Wind Pressure Humidity
00:00 +12°C° 0 mm 3 mps 756 mmHg 68%
01:00 +12°C° 0 mm 2 mps 757 mmHg 70%
02:00 +10°C° 0 mm 2 mps 757 mmHg 71%
03:00 +10°C° 0 mm 2 mps 757 mmHg 71%
04:00 +10°C° 0 mm 2 mps 757 mmHg 71%
05:00 +12°C° 0 mm 2 mps 757 mmHg 68%
06:00 +13°C° 0 mm 3 mps 757 mmHg 64%
07:00 +16°C° 0 mm 3 mps 757 mmHg 60%
08:00 +17°C° 0 mm 3 mps 757 mmHg 56%
09:00 +18°C° 0 mm 3 mps 757 mmHg 52%
10:00 +20°C° 0 mm 2 mps 757 mmHg 48%
11:00 +20°C° 0 mm 2 mps 757 mmHg 46%
12:00 +21°C° 0 mm 2 mps 756 mmHg 44%
13:00 +23°C° 0 mm 2 mps 756 mmHg 42%
14:00 +23°C° 0 mm 2 mps 756 mmHg 42%
15:00 +23°C° 0 mm 2 mps 755 mmHg 43%
16:00 +23°C° 0 mm 2 mps 755 mmHg 43%
17:00 +21°C° 0 mm 1 mps 755 mmHg 50%
18:00 +20°C° 0 mm 1 mps 755 mmHg 57%
19:00 +19°C° 0 mm 1 mps 755 mmHg 63%
20:00 +18°C° 0 mm 1 mps 755 mmHg 64%
21:00 +16°C° 0 mm 2 mps 755 mmHg 65%
22:00 +16°C° 0 mm 2 mps 756 mmHg 67%
23:00 +15°C° 0 mm 2 mps 756 mmHg 66%

15 June, Tuesday

Time Temperature Precipitation Wind Pressure Humidity
00:00 +15°C° 0 mm 2 mps 756 mmHg 66%
01:00 +15°C° 0 mm 2 mps 756 mmHg 66%
02:00 +14°C° 0 mm 2 mps 756 mmHg 68%
03:00 +13°C° 0 mm 2 mps 756 mmHg 70%
04:00 +13°C° 0 mm 2 mps 756 mmHg 71%
05:00 +14°C° 0 mm 2 mps 756 mmHg 67%
06:00 +16°C° 0 mm 2 mps 756 mmHg 64%
07:00 +18°C° 0 mm 2 mps 756 mmHg 60%
08:00 +19°C° 0 mm 3 mps 756 mmHg 55%
09:00 +20°C° 0 mm 3 mps 756 mmHg 51%
10:00 +22°C° 0 mm 3 mps 756 mmHg 46%
11:00 +24°C° 0 mm 3 mps 756 mmHg 44%
12:00 +24°C° 0 mm 3 mps 756 mmHg 43%
13:00 +25°C° 0 mm 2 mps 756 mmHg 42%
14:00 +25°C° 0 mm 2 mps 755 mmHg 42%
15:00 +25°C° 0 mm 2 mps 755 mmHg 42%
16:00 +26°C° 0 mm 2 mps 755 mmHg 42%
17:00 +24°C° 0 mm 1 mps 755 mmHg 48%
18:00 +23°C° 0 mm 1 mps 755 mmHg 54%
19:00 +22°C° 0 mm 1 mps 755 mmHg 60%
20:00 +21°C° 0 mm 1 mps 755 mmHg 62%
21:00 +20°C° 0 mm 1 mps 755 mmHg 63%
22:00 +19°C° 0 mm 1 mps 755 mmHg 64%
23:00 +19°C° 0 mm 1 mps 755 mmHg 66%

16 June, Wednesday

Time Temperature Precipitation Wind Pressure Humidity
00:00 +18°C° 0 mm 1 mps 755 mmHg 68%
01:00 +18°C° 0 mm 1 mps 755 mmHg 70%
02:00 +18°C° 0 mm 1 mps 755 mmHg 70%
03:00 +16°C° 0 mm 1 mps 755 mmHg 71%
04:00 +16°C° 0 mm 1 mps 755 mmHg 71%
05:00 +18°C° 0 mm 1 mps 755 mmHg 69%
06:00 +19°C° 0 mm 1 mps 755 mmHg 67%
07:00 +21°C° 0 mm 1 mps 755 mmHg 65%
08:00 +22°C° 0 mm 1 mps 755 mmHg 61%
09:00 +23°C° 0 mm 1 mps 756 mmHg 58%
10:00 +24°C° 0 mm 1 mps 756 mmHg 54%
11:00 +25°C° 0 mm 1 mps 755 mmHg 51%
12:00 +26°C° 0 mm 1 mps 755 mmHg 48%
13:00 +27°C° 0 mm 1 mps 755 mmHg 45%
14:00 +27°C° 0 mm 1 mps 755 mmHg 45%
15:00 +27°C° 0 mm 1 mps 755 mmHg 44%
16:00 +27°C° 0 mm 1 mps 755 mmHg 44%
17:00 +26°C° 0 mm 1 mps 755 mmHg 51%
18:00 +25°C° 0 mm 1 mps 754 mmHg 57%
19:00 +23°C° 0 mm 1 mps 754 mmHg 64%
20:00 +22°C° 0 mm 1 mps 755 mmHg 67%
21:00 +21°C° 0 mm 1 mps 755 mmHg 69%
22:00 +20°C° 0 mm 1 mps 755 mmHg 72%
23:00 +19°C° 0 mm 1 mps 755 mmHg 74%

17 June, Thursday

Time Temperature Precipitation Wind Pressure Humidity
00:00 +19°C° 0 mm 1 mps 755 mmHg 76%
01:00 +18°C° 0 mm 1 mps 755 mmHg 78%
02:00 +18°C° 0 mm 1 mps 755 mmHg 79%
03:00 +18°C° 0 mm 1 mps 755 mmHg 80%
04:00 +16°C° 0 mm 1 mps 755 mmHg 82%
05:00 +19°C° 0 mm 1 mps 755 mmHg 76%
06:00 +21°C° 0 mm 1 mps 756 mmHg 71%
07:00 +21°C° 0 mm 2 mps 756 mmHg 66%
08:00 +24°C° 0 mm 2 mps 756 mmHg 61%
09:00 +25°C° 0 mm 2 mps 756 mmHg 57%
10:00 +27°C° 0 mm 2 mps 756 mmHg 52%
11:00 +27°C° 0 mm 2 mps 756 mmHg 49%
12:00 +28°C° 0 mm 2 mps 756 mmHg 46%
13:00 +29°C° 0 mm 3 mps 755 mmHg 43%
14:00 +29°C° 0 mm 2 mps 755 mmHg 43%
15:00 +29°C° 0 mm 2 mps 755 mmHg 42%
16:00 +30°C° 0 mm 2 mps 755 mmHg 42%
17:00 +28°C° 0 mm 2 mps 755 mmHg 48%
18:00 +27°C° 0 mm 2 mps 755 mmHg 54%
19:00 +25°C° 0 mm 1 mps 755 mmHg 60%
20:00 +24°C° 0 mm 1 mps 755 mmHg 61%
21:00 +23°C° 0 mm 1 mps 755 mmHg 63%
22:00 +22°C° 0 mm 1 mps 755 mmHg 64%
23:00 +22°C° 0 mm 1 mps 755 mmHg 67%
Show more

We Need Your Consent

Meteoprog and our Service Providers may store and access personal data such as cookies, device identifiers or other similar technologies on your device and process such data to personalise content and ads, as well as provide social media features and to analyse the traffic.

  • Store and/or access information on your device

    Cookies, device identifiers or other information can be stored or accessed on your device for the purposes indicated above.

  • Personalised ads and content, ad and content measurement, audience insights, and products development

    Ads and content can be personalised based on a profile. More data can be added to better personalise ads and content. Ad and content performance can be measured. Insights about the audience who saw the ads and content can be derived. Such data can be used to develop or improve user’s experience, systems and software.

By clicking ‘I Agree’ you will allow the use of indicated cookies, device identifiers, web beacons or other similar technologies. Your settings can be changed in the browser on your device.

For certain purposes, legitimate interests may be relied on, rather than consent. You can read more about this in our Privacy and Cookie Policy.